Location: Esp�s Alto
(42.4476°N, 0.5876°E)
Time: 16:33:35
(UTC+00:00)

SJ-6F - Pass Details

Date: 22 October 2019
Orbit: 571 x 594 km, 97.7° (Epoch: 17 November)

Event Time Altitude Azimuth Distance (km) Brightness Sun altitude
Rises 04:32:25 0° 10° (N) 2,824 8.1 -20.2°
Reaches altitude 10° 04:34:36 10° 8° (N) 1,915 7.2 -19.8°
Maximum altitude 04:38:43 71° 286° (WNW) 620 4.3 -19.0°
Enters shadow 04:42:24 13° 202° (SSW) 1,723 6.6 -18.4°
